www.cux-wetter.de
Wetterdaten: Donnerstag, 20.11.2014
Datum Zeit Temp. A. Feuchte A. Luftdruck Regen Wind Richtung Richtung Sonnenschein Solar Taupunkt Windchill Windben
20.11.2014 00:00 8,5 C 91 % 1025,5 hPa 0,0 l/m 0,1 km/h (0 Bft) NO 40 0 min 0 W/m 7,1 C 8,5 C 0,1 km/h (0 Bft)
20.11.2014 00:15 8,5 C 91 % 1025,5 hPa 0,0 l/m 1,0 km/h (0 Bft) NO 40 0 min 0 W/m 7,1 C 8,5 C 1,0 km/h (0 Bft)
20.11.2014 00:30 8,5 C 91 % 1025,5 hPa 0,0 l/m 0,8 km/h (0 Bft) NO 40 0 min 0 W/m 7,1 C 8,5 C 0,8 km/h (0 Bft)
20.11.2014 00:46 8,5 C 91 % 1025,5 hPa 0,0 l/m 0,6 km/h (0 Bft) NO 40 0 min 0 W/m 7,1 C 8,5 C 0,6 km/h (0 Bft)
20.11.2014 01:00 8,5 C 91 % 1026,5 hPa 0,0 l/m 4,2 km/h (1 Bft) NO 40 0 min 0 W/m 7,1 C 8,5 C 4,2 km/h (1 Bft)
20.11.2014 01:15 8,5 C 91 % 1026,5 hPa 0,0 l/m 0,1 km/h (0 Bft) NO 40 0 min 0 W/m 7,1 C 8,5 C 0,1 km/h (0 Bft)
20.11.2014 01:30 8,4 C 91 % 1026,5 hPa 0,0 l/m 0,2 km/h (0 Bft) NO 40 0 min 0 W/m 7,0 C 8,4 C 0,2 km/h (0 Bft)
20.11.2014 01:46 8,4 C 91 % 1026,5 hPa 0,0 l/m 0,9 km/h (0 Bft) O 85 0 min 0 W/m 7,0 C 8,4 C 0,9 km/h (0 Bft)
20.11.2014 02:00 8,4 C 91 % 1026,5 hPa 0,0 l/m 1,9 km/h (1 Bft) NO 55 0 min 0 W/m 7,0 C 8,4 C 1,9 km/h (1 Bft)
20.11.2014 02:15 8,4 C 91 % 1026,5 hPa 0,0 l/m 0,7 km/h (0 Bft) O-SO 105 0 min 0 W/m 7,0 C 8,4 C 0,7 km/h (0 Bft)
20.11.2014 02:30 8,4 C 91 % 1026,5 hPa 0,0 l/m 5,2 km/h (1 Bft) O-NO 70 0 min 0 W/m 7,0 C 8,4 C 5,2 km/h (1 Bft)
20.11.2014 02:46 8,4 C 91 % 1026,5 hPa 0,0 l/m 0,3 km/h (0 Bft) NO 35 0 min 0 W/m 7,0 C 8,4 C 0,3 km/h (0 Bft)
20.11.2014 03:00 8,4 C 91 % 1026,5 hPa 0,0 l/m 4,6 km/h (1 Bft) SO 125 0 min 0 W/m 7,0 C 8,4 C 4,6 km/h (1 Bft)
20.11.2014 03:15 8,5 C 91 % 1026,5 hPa 0,0 l/m 0,9 km/h (0 Bft) SO 130 0 min 0 W/m 7,1 C 8,5 C 0,9 km/h (0 Bft)
20.11.2014 03:30 8,4 C 91 % 1026,5 hPa 0,0 l/m 4,3 km/h (1 Bft) O 95 0 min 0 W/m 7,0 C 8,4 C 4,3 km/h (1 Bft)
20.11.2014 03:46 8,4 C 91 % 1026,5 hPa 0,0 l/m 0,6 km/h (0 Bft) O-SO 110 0 min 0 W/m 7,0 C 8,4 C 0,6 km/h (0 Bft)
20.11.2014 04:00 8,4 C 91 % 1026,5 hPa 0,0 l/m 0,7 km/h (0 Bft) SO 130 0 min 0 W/m 7,0 C 8,4 C 0,7 km/h (0 Bft)
20.11.2014 04:15 8,4 C 91 % 1026,5 hPa 0,0 l/m 0,0 km/h (0 Bft) SO 130 0 min 0 W/m 7,0 C 8,4 C 0,0 km/h (0 Bft)
20.11.2014 04:30 8,4 C 91 % 1026,5 hPa 0,0 l/m 0,0 km/h (0 Bft) SO 135 0 min 0 W/m 7,0 C 8,4 C 0,0 km/h (0 Bft)
20.11.2014 04:46 8,5 C 91 % 1026,5 hPa 0,0 l/m 0,3 km/h (0 Bft) SO 135 0 min 0 W/m 7,1 C 8,5 C 0,3 km/h (0 Bft)
20.11.2014 05:00 8,4 C 91 % 1026,5 hPa 0,0 l/m 1,2 km/h (1 Bft) O 100 0 min 0 W/m 7,0 C 8,4 C 1,2 km/h (1 Bft)
20.11.2014 05:15 8,4 C 91 % 1026,5 hPa 0,0 l/m 2,3 km/h (1 Bft) O 90 0 min 0 W/m 7,0 C 8,4 C 2,3 km/h (1 Bft)
20.11.2014 05:30 8,4 C 91 % 1026,5 hPa 0,0 l/m 0,3 km/h (0 Bft) O-NO 75 0 min 0 W/m 7,0 C 8,4 C 0,3 km/h (0 Bft)
20.11.2014 05:45 8,4 C 91 % 1026,5 hPa 0,0 l/m 3,1 km/h (1 Bft) O-NO 75 0 min 0 W/m 7,0 C 8,4 C 3,1 km/h (1 Bft)
20.11.2014 06:00 8,4 C 91 % 1026,5 hPa 0,0 l/m 0,3 km/h (0 Bft) N 10 0 min 0 W/m 7,0 C 8,4 C 0,3 km/h (0 Bft)
20.11.2014 06:15 8,4 C 91 % 1026,5 hPa 0,0 l/m 0,2 km/h (0 Bft) N 5 0 min 0 W/m 7,0 C 8,4 C 0,2 km/h (0 Bft)
20.11.2014 06:30 8,3 C 91 % 1026,5 hPa 0,0 l/m 0,8 km/h (0 Bft) O-NO 65 0 min 0 W/m 6,9 C 8,3 C 0,8 km/h (0 Bft)
20.11.2014 06:45 8,2 C 91 % 1026,5 hPa 0,0 l/m 1,0 km/h (0 Bft) O 85 0 min 0 W/m 6,8 C 8,2 C 1,0 km/h (0 Bft)
20.11.2014 07:00 8,3 C 91 % 1026,5 hPa 0,0 l/m 0,4 km/h (0 Bft) O-SO 105 0 min 0 W/m 6,9 C 8,3 C 0,4 km/h (0 Bft)
20.11.2014 07:15 8,3 C 91 % 1026,5 hPa 0,0 l/m 0,9 km/h (0 Bft) O 85 0 min 0 W/m 6,9 C 8,3 C 0,9 km/h (0 Bft)
20.11.2014 07:30 8,3 C 91 % 1026,5 hPa 0,0 l/m 0,6 km/h (0 Bft) O 85 0 min 0 W/m 6,9 C 8,3 C 0,6 km/h (0 Bft)
20.11.2014 07:45 8,4 C 91 % 1027,5 hPa 0,0 l/m 0,7 km/h (0 Bft) O 90 0 min 0 W/m 7,0 C 8,4 C 0,7 km/h (0 Bft)
20.11.2014 08:00 8,4 C 91 % 1027,5 hPa 0,0 l/m 4,7 km/h (1 Bft) SO 145 0 min 0 W/m 7,0 C 8,4 C 4,7 km/h (1 Bft)
20.11.2014 08:15 8,4 C 91 % 1027,5 hPa 0,0 l/m 6,1 km/h (2 Bft) S-SO 160 0 min 0 W/m 7,0 C 8,4 C 6,1 km/h (2 Bft)
20.11.2014 08:29 8,2 C 91 % 1027,5 hPa 0,0 l/m 4,8 km/h (1 Bft) S 180 0 min 0 W/m 6,8 C 8,2 C 4,8 km/h (1 Bft)
20.11.2014 08:45 8,1 C 91 % 1027,5 hPa 0,0 l/m 2,8 km/h (1 Bft) S 180 0 min 0 W/m 6,7 C 8,1 C 2,8 km/h (1 Bft)
20.11.2014 09:00 8,0 C 91 % 1027,5 hPa 0,0 l/m 0,0 km/h (0 Bft) S 180 0 min 0 W/m 6,6 C 8,0 C 0,0 km/h (0 Bft)
20.11.2014 09:15 7,9 C 91 % 1027,5 hPa 0,0 l/m 0,0 km/h (0 Bft) S 180 0 min 0 W/m 6,5 C 7,9 C 0,0 km/h (0 Bft)
20.11.2014 09:29 7,9 C 91 % 1027,5 hPa 0,0 l/m 0,0 km/h (0 Bft) S 180 0 min 0 W/m 6,5 C 7,9 C 0,0 km/h (0 Bft)
20.11.2014 09:45 7,8 C 91 % 1027,5 hPa 0,0 l/m 0,0 km/h (0 Bft) S 180 0 min 0 W/m 6,4 C 7,8 C 0,0 km/h (0 Bft)
20.11.2014 10:00 8,0 C 91 % 1027,5 hPa 0,0 l/m 0,0 km/h (0 Bft) S 180 0 min 0 W/m 6,6 C 8,0 C 0,0 km/h (0 Bft)
20.11.2014 10:15 8,3 C 91 % 1028,5 hPa 0,0 l/m 0,0 km/h (0 Bft) S 180 0 min 0 W/m 6,9 C 8,3 C 0,0 km/h (0 Bft)
20.11.2014 10:30 8,6 C 91 % 1027,5 hPa 0,0 l/m 0,6 km/h (0 Bft) S 180 0 min 0 W/m 7,2 C 8,6 C 0,6 km/h (0 Bft)
20.11.2014 10:45 8,5 C 91 % 1027,5 hPa 0,0 l/m 0,0 km/h (0 Bft) S 180 0 min 0 W/m 7,1 C 8,5 C 0,0 km/h (0 Bft)
20.11.2014 11:00 8,8 C 91 % 1027,5 hPa 0,0 l/m 0,0 km/h (0 Bft) S 180 0 min 0 W/m 7,4 C 8,8 C 0,0 km/h (0 Bft)
20.11.2014 11:15 8,9 C 91 % 1027,5 hPa 0,0 l/m 0,0 km/h (0 Bft) S 180 0 min 0 W/m 7,5 C 8,9 C 0,0 km/h (0 Bft)
20.11.2014 11:30 9,2 C 90 % 1027,5 hPa 0,0 l/m 0,0 km/h (0 Bft) S-SO 155 0 min 0 W/m 7,6 C 9,2 C 0,0 km/h (0 Bft)
20.11.2014 11:45 9,2 C 90 % 1027,5 hPa 0,0 l/m 0,0 km/h (0 Bft) S-SO 155 0 min 0 W/m 7,6 C 9,2 C 0,0 km/h (0 Bft)
20.11.2014 12:00 9,1 C 90 % 1027,5 hPa 0,0 l/m 0,1 km/h (0 Bft) S-SO 155 0 min 0 W/m 7,5 C 9,1 C 0,1 km/h (0 Bft)
20.11.2014 12:15 9,0 C 89 % 1027,5 hPa 0,0 l/m 0,0 km/h (0 Bft) O 95 0 min 0 W/m 7,3 C 9,0 C 0,0 km/h (0 Bft)
20.11.2014 12:30 8,9 C 89 % 1027,5 hPa 0,0 l/m 0,1 km/h (0 Bft) SO 140 0 min 0 W/m 7,2 C 8,9 C 0,1 km/h (0 Bft)
20.11.2014 12:45 8,8 C 89 % 1027,5 hPa 0,0 l/m 0,0 km/h (0 Bft) SO 140 0 min 0 W/m 7,1 C 8,8 C 0,0 km/h (0 Bft)
20.11.2014 13:00 8,8 C 89 % 1027,5 hPa 0,0 l/m 0,0 km/h (0 Bft) SO 140 0 min 0 W/m 7,1 C 8,8 C 0,0 km/h (0 Bft)
20.11.2014 13:15 9,0 C 89 % 1027,5 hPa 0,0 l/m 0,0 km/h (0 Bft) SO 140 0 min 0 W/m 7,3 C 9,0 C 0,0 km/h (0 Bft)
20.11.2014 13:30 9,2 C 89 % 1027,5 hPa 0,0 l/m 0,0 km/h (0 Bft) SO 140 0 min 0 W/m 7,5 C 9,2 C 0,0 km/h (0 Bft)
20.11.2014 13:45 9,7 C 88 % 1027,5 hPa 0,0 l/m 6,8 km/h (2 Bft) N 360 0 min 0 W/m 7,8 C 9,4 C 6,8 km/h (2 Bft)
20.11.2014 14:00 9,5 C 87 % 1027,5 hPa 0,0 l/m 4,6 km/h (1 Bft) N 360 0 min 0 W/m 7,4 C 9,5 C 4,6 km/h (1 Bft)
20.11.2014 14:14 9,4 C 87 % 1027,5 hPa 0,3 l/m 0,0 km/h (0 Bft) N-NO 25 0 min 0 W/m 7,3 C 9,4 C 0,0 km/h (0 Bft)
20.11.2014 14:30 9,6 C 87 % 1027,5 hPa 0,0 l/m 0,0 km/h (0 Bft) N-NO 20 0 min 0 W/m 7,5 C 9,6 C 0,0 km/h (0 Bft)
20.11.2014 14:45 9,6 C 86 % 1027,5 hPa 0,0 l/m 3,1 km/h (1 Bft) O-NO 65 0 min 0 W/m 7,4 C 9,6 C 3,1 km/h (1 Bft)
20.11.2014 14:59 9,5 C 86 % 1027,5 hPa 0,0 l/m 0,7 km/h (0 Bft) O-NO 65 0 min 0 W/m 7,3 C 9,5 C 0,7 km/h (0 Bft)
20.11.2014 15:14 9,1 C 85 % 1027,5 hPa 0,0 l/m 8,5 km/h (2 Bft) NO 55 0 min 0 W/m 6,7 C 7,6 C 8,5 km/h (2 Bft)
20.11.2014 15:30 8,9 C 86 % 1027,5 hPa 0,0 l/m 0,5 km/h (0 Bft) NO 40 0 min 0 W/m 6,7 C 8,9 C 0,5 km/h (0 Bft)
20.11.2014 15:45 8,6 C 86 % 1027,5 hPa 0,0 l/m 0,0 km/h (0 Bft) S-SO 150 0 min 0 W/m 6,4 C 8,6 C 0,0 km/h (0 Bft)
20.11.2014 16:00 8,3 C 86 % 1027,5 hPa 0,0 l/m 0,0 km/h (0 Bft) S-SO 150 0 min 0 W/m 6,1 C 8,3 C 0,0 km/h (0 Bft)
20.11.2014 16:15 8,0 C 86 % 1027,5 hPa 0,0 l/m 0,0 km/h (0 Bft) S-SO 150 0 min 0 W/m 5,8 C 8,0 C 0,0 km/h (0 Bft)
20.11.2014 16:30 7,8 C 86 % 1027,5 hPa 0,0 l/m 0,0 km/h (0 Bft) S-SO 150 0 min 0 W/m 5,6 C 7,8 C 0,0 km/h (0 Bft)
20.11.2014 16:45 7,7 C 86 % 1027,5 hPa 0,0 l/m 0,0 km/h (0 Bft) S-SO 150 0 min 0 W/m 5,5 C 7,7 C 0,0 km/h (0 Bft)
20.11.2014 17:00 7,8 C 87 % 1027,5 hPa 0,0 l/m 0,6 km/h (0 Bft) S-SO 150 0 min 0 W/m 5,8 C 7,8 C 0,6 km/h (0 Bft)
20.11.2014 17:15 7,8 C 87 % 1027,5 hPa 0,0 l/m 0,1 km/h (0 Bft) S-SO 150 0 min 0 W/m 5,8 C 7,8 C 0,1 km/h (0 Bft)
20.11.2014 17:30 7,9 C 88 % 1027,5 hPa 0,0 l/m 0,1 km/h (0 Bft) S-SO 150 0 min 0 W/m 6,0 C 7,9 C 0,1 km/h (0 Bft)
20.11.2014 17:45 7,9 C 87 % 1027,5 hPa 0,0 l/m 0,0 km/h (0 Bft) S-SO 150 0 min 0 W/m 5,9 C 7,9 C 0,0 km/h (0 Bft)
20.11.2014 18:00 7,6 C 87 % 1027,5 hPa 0,0 l/m 0,0 km/h (0 Bft) S-SO 150 0 min 0 W/m 5,6 C 7,6 C 0,0 km/h (0 Bft)
20.11.2014 18:15 7,3 C 87 % 1027,5 hPa 0,0 l/m 0,0 km/h (0 Bft) S-SO 150 0 min 0 W/m 5,3 C 7,3 C 0,0 km/h (0 Bft)
20.11.2014 18:30 7,2 C 87 % 1027,5 hPa 0,0 l/m 0,0 km/h (0 Bft) S-SO 150 0 min 0 W/m 5,2 C 7,2 C 0,0 km/h (0 Bft)
20.11.2014 18:44 6,9 C 87 % 1027,5 hPa 0,0 l/m 0,0 km/h (0 Bft) S-SO 150 0 min 0 W/m 4,9 C 6,9 C 0,0 km/h (0 Bft)
20.11.2014 19:00 6,8 C 87 % 1027,5 hPa 0,0 l/m 0,0 km/h (0 Bft) S-SO 150 0 min 0 W/m 4,8 C 6,8 C 0,0 km/h (0 Bft)
20.11.2014 19:15 6,5 C 87 % 1027,5 hPa 0,0 l/m 0,0 km/h (0 Bft) S-SO 150 0 min 0 W/m 4,5 C 6,5 C 0,0 km/h (0 Bft)
20.11.2014 19:30 6,3 C 86 % 1027,5 hPa 0,0 l/m 0,0 km/h (0 Bft) S-SO 150 0 min 0 W/m 4,1 C 6,3 C 0,0 km/h (0 Bft)
20.11.2014 19:45 6,2 C 86 % 1027,5 hPa 0,0 l/m 0,1 km/h (0 Bft) S-SO 150 0 min 0 W/m 4,0 C 6,2 C 0,1 km/h (0 Bft)
20.11.2014 20:00 5,7 C 86 % 1027,5 hPa 0,0 l/m 0,1 km/h (0 Bft) S-SO 150 0 min 0 W/m 3,5 C 5,7 C 0,1 km/h (0 Bft)
20.11.2014 20:15 5,6 C 86 % 1027,5 hPa 0,0 l/m 0,0 km/h (0 Bft) S-SO 150 0 min 0 W/m 3,4 C 5,6 C 0,0 km/h (0 Bft)
20.11.2014 20:30 5,5 C 86 % 1027,5 hPa 0,0 l/m 0,0 km/h (0 Bft) S-SO 150 0 min 0 W/m 3,3 C 5,5 C 0,0 km/h (0 Bft)
20.11.2014 20:45 5,5 C 86 % 1027,5 hPa 0,0 l/m 0,0 km/h (0 Bft) S-SO 150 0 min 0 W/m 3,3 C 5,5 C 0,0 km/h (0 Bft)
20.11.2014 21:00 5,4 C 86 % 1027,5 hPa 0,0 l/m 0,0 km/h (0 Bft) S-SO 150 0 min 0 W/m 3,3 C 5,4 C 0,0 km/h (0 Bft)
20.11.2014 21:15 4,9 C 86 % 1027,5 hPa 0,0 l/m 0,0 km/h (0 Bft) S-SO 150 0 min 0 W/m 2,8 C 4,9 C 0,0 km/h (0 Bft)
20.11.2014 21:30 4,5 C 85 % 1027,5 hPa 0,0 l/m 0,0 km/h (0 Bft) S-SO 150 0 min 0 W/m 2,2 C 4,5 C 0,0 km/h (0 Bft)
20.11.2014 21:45 4,5 C 85 % 1027,5 hPa 0,0 l/m 0,0 km/h (0 Bft) S-SO 150 0 min 0 W/m 2,2 C 4,5 C 0,0 km/h (0 Bft)
20.11.2014 22:00 4,3 C 85 % 1027,5 hPa 0,0 l/m 0,0 km/h (0 Bft) S-SO 150 0 min 0 W/m 2,0 C 4,3 C 0,0 km/h (0 Bft)
20.11.2014 22:15 4,2 C 85 % 1027,5 hPa 0,0 l/m 0,0 km/h (0 Bft) S-SO 150 0 min 0 W/m 1,9 C 4,2 C 0,0 km/h (0 Bft)
20.11.2014 22:29 4,2 C 85 % 1027,5 hPa 0,0 l/m 0,0 km/h (0 Bft) S-SO 150 0 min 0 W/m 1,9 C 4,2 C 0,0 km/h (0 Bft)
20.11.2014 22:45 4,0 C 85 % 1027,5 hPa 0,0 l/m 0,0 km/h (0 Bft) S-SO 150 0 min 0 W/m 1,7 C 4,0 C 0,0 km/h (0 Bft)
20.11.2014 23:00 3,9 C 85 % 1027,5 hPa 0,0 l/m 0,0 km/h (0 Bft) S-SO 150 0 min 0 W/m 1,6 C 3,9 C 0,0 km/h (0 Bft)
20.11.2014 23:15 3,9 C 85 % 1027,5 hPa 0,0 l/m 0,0 km/h (0 Bft) S-SO 150 0 min 0 W/m 1,6 C 3,9 C 0,0 km/h (0 Bft)
20.11.2014 23:29 3,9 C 85 % 1027,5 hPa 0,0 l/m 0,0 km/h (0 Bft) S-SO 150 0 min 0 W/m 1,6 C 3,9 C 0,0 km/h (0 Bft)
20.11.2014 23:45 3,7 C 85 % 1027,5 hPa 0,0 l/m 0,0 km/h (0 Bft) S-SO 150 0 min 0 W/m 1,4 C 3,7 C 0,0 km/h (0 Bft)
_ Min-Zeit 23:45 15:14 00:00 - 04:15 - - - - 23:45 23:45 04:15
Minimum _ 3,7 C 85 % 1025,5 hPa - 0,0 km/h (0 Bft) - - - - 1,4 C 3,7 C 0,0 km/h (0 Bft)
_ Max-Zeit 13:45 00:00 10:15 14:14 15:14 - - 00:00 00:00 13:45 14:30 15:14
Maximum _ 9,7 C 91 % 1028,5 hPa 0,3 l/m 8,5 km/h
NO (2 Bft)
- - 0 min 0 W/m 7,8 C 9,6 C 8,5 km/h
NO (2 Bft)
Durchschnitt _ 7,7 C 89 % 1027,2 hPa #0,3 l/m 0,9 km/h (0 Bft) NO - #0 min. 0 W/m 6,0 C 7,7 C 0,9 km/h (0 Bft)
copyright by Holger Just